Dades meteomassalio
Diari Summary for Maig 23, 2017 Units:  English    Metric   Both
« Previous Day
Next Day »
Diari Semanal Mensual Anual Personalitzat
  Maxima: Minima: Mijana:
Temperatura: TemperatureC °F 12.8 °F 21.8 °F
Rosada: DewpointC °F 10.3 °F 12 °F
Humitat: Humidity % 35 % 57 %
Velocitat del vent: WindSpeedKMH mph 0.0 mph 6.7 mph
Racha vent: WindSpeedGustKMH mph - -
Vent:- - SSE
Pressio: PressurehPa in 1016.5 in -
Pluja: 0.0 in    
Historical Graphs
 
 
Tabular Data for Maig 23, 2017
Time Temperature Dew Point Pressure Wind Wind Speed Wind Gust Humidity Rainfall Rate (Hourly) solar Conditions
TemperatureC °F DewpointC °F PressurehPa in Calm     Humidity % HourlyPrecipMM in SolarRadiationWatts/m^2 W/m2 Conditions
00:03 18.6 °F 12.3 °F 1016.5 in Calm     67 % 0.0 in 0.0 W/m2 CLR
00:08 18.4 °F 12.4 °F 1016.8 in Calm     68 % 0.0 in 0.0 W/m2 CLR
00:13 18.3 °F 12.5 °F 1016.8 in East 5.6 mph 5.6 mph 69 % 0.0 in 0.0 W/m2 CLR
00:18 18.2 °F 12.7 °F 1016.8 in Calm     70 % 0.0 in 0.0 W/m2 CLR
00:23 18.2 °F 12.7 °F 1016.8 in Calm     70 % 0.0 in 0.0 W/m2 CLR
00:28 18.2 °F 12.9 °F 1016.8 in Calm     71 % 0.0 in 0.0 W/m2 CLR
00:33 18.2 °F 12.8 °F 1016.8 in Calm     71 % 0.0 in 0.0 W/m2 CLR
00:38 18.2 °F 13.1 °F 1016.8 in Calm     72 % 0.0 in 0.0 W/m2 CLR
00:43 18.1 °F 13.0 °F 1017.2 in ENE 7.4 mph 7.4 mph 72 % 0.0 in 0.0 W/m2 CLR
00:48 18.0 °F 12.9 °F 1017.2 in Calm     72 % 0.0 in 0.0 W/m2 CLR
00:53 17.9 °F 13.0 °F 1017.2 in Calm     73 % 0.0 in 0.0 W/m2 CLR
00:58 17.8 °F 12.9 °F 1017.2 in Calm     73 % 0.0 in 0.0 W/m2 CLR
01:03 17.7 °F 12.8 °F 1017.2 in Calm     73 % 0.0 in 0.0 W/m2 CLR
01:08 17.4 °F 12.5 °F 1016.8 in Calm     73 % 0.0 in 0.0 W/m2 CLR
01:13 17.3 °F 12.8 °F 1016.8 in Calm     75 % 0.0 in 0.0 W/m2 CLR
01:18 17.2 °F 12.7 °F 1017.2 in Calm     75 % 0.0 in 0.0 W/m2 CLR
01:23 17.2 °F 12.7 °F 1017.2 in Calm     75 % 0.0 in 0.0 W/m2 CLR
01:28 17.1 °F 12.8 °F 1017.2 in Calm     76 % 0.0 in 0.0 W/m2 CLR
01:33 17.1 °F 12.8 °F 1017.5 in Calm     76 % 0.0 in 0.0 W/m2 CLR
01:38 17.0 °F 12.7 °F 1017.5 in Calm     76 % 0.0 in 0.0 W/m2 CLR
01:43 16.8 °F 12.6 °F 1017.5 in Calm     76 % 0.0 in 0.0 W/m2 CLR
01:48 16.7 °F 12.4 °F 1017.5 in Calm     76 % 0.0 in 0.0 W/m2 CLR
01:53 16.5 °F 12.3 °F 1017.5 in Calm     76 % 0.0 in 0.0 W/m2 CLR
01:58 16.3 °F 12.1 °F 1017.5 in Calm     76 % 0.0 in 0.0 W/m2 CLR
02:03 16.1 °F 11.9 °F 1017.2 in WSW 3.2 mph 3.2 mph 76 % 0.0 in 0.0 W/m2 CLR
02:08 16.0 °F 11.9 °F 1017.2 in SW 7.4 mph 7.4 mph 77 % 0.0 in 0.0 W/m2 CLR
02:13 16.1 °F 12.0 °F 1017.2 in Calm     77 % 0.0 in 0.0 W/m2 CLR
02:18 16.2 °F 12.4 °F 1017.2 in Calm     78 % 0.0 in 0.0 W/m2 CLR
02:23 16.4 °F 12.6 °F 1017.2 in WSW 5.6 mph 5.6 mph 78 % 0.0 in 0.0 W/m2 CLR
02:28 16.5 °F 12.4 °F 1017.2 in WSW 7.4 mph 7.4 mph 77 % 0.0 in 0.0 W/m2 CLR
02:33 16.6 °F 12.5 °F 1017.5 in WSW 5.6 mph 5.6 mph 77 % 0.0 in 0.0 W/m2 CLR
02:38 16.5 °F 12.3 °F 1017.5 in Calm     76 % 0.0 in 0.0 W/m2 CLR
02:43 16.3 °F 11.8 °F 1017.5 in Calm     75 % 0.0 in 0.0 W/m2 CLR
02:48 16.1 °F 11.6 °F 1017.5 in Calm     75 % 0.0 in 0.0 W/m2 CLR
02:53 15.8 °F 11.4 °F 1017.5 in Calm     75 % 0.0 in 0.0 W/m2 CLR
02:58 15.6 °F 11.2 °F 1017.5 in Calm     75 % 0.0 in 0.0 W/m2 CLR
03:03 15.6 °F 11.3 °F 1017.5 in Calm     76 % 0.0 in 0.0 W/m2 CLR
03:08 15.6 °F 11.4 °F 1017.8 in Calm     76 % 0.0 in 0.0 W/m2 CLR
03:13 15.7 °F 11.4 °F 1017.8 in Calm     76 % 0.0 in 0.0 W/m2 CLR
03:18 15.7 °F 11.4 °F 1017.8 in Calm     76 % 0.0 in 0.0 W/m2 CLR
03:23 15.7 °F 11.2 °F 1017.8 in Calm     75 % 0.0 in 0.0 W/m2 CLR
03:28 15.6 °F 11.2 °F 1017.8 in Calm     75 % 0.0 in 0.0 W/m2 CLR
03:33 15.6 °F 11.3 °F 1017.8 in Calm     76 % 0.0 in 0.0 W/m2 CLR
03:38 15.6 °F 11.6 °F 1017.8 in Calm     77 % 0.0 in 0.0 W/m2 CLR
03:43 15.8 °F 11.8 °F 1017.8 in West 9.3 mph 9.3 mph 77 % 0.0 in 0.0 W/m2 CLR
03:48 16.1 °F 12.0 °F 1017.8 in WSW 5.6 mph 5.6 mph 77 % 0.0 in 0.0 W/m2 CLR
03:53 16.1 °F 11.7 °F 1017.8 in SW 3.7 mph 3.7 mph 75 % 0.0 in 0.0 W/m2 CLR
03:58 16.1 °F 11.8 °F 1017.8 in WSW 7.4 mph   76 % 0.0 in 0.0 W/m2 CLR
04:03 16.1 °F 11.8 °F 1017.8 in Calm     76 % 0.0 in 0.0 W/m2 CLR
04:08 15.9 °F 11.7 °F 1017.8 in West 3.7 mph   76 % 0.0 in 0.0 W/m2 CLR
04:13 15.9 °F 11.7 °F 1017.8 in Calm     76 % 0.0 in 0.0 W/m2 CLR
04:18 15.8 °F 11.6 °F 1017.8 in Calm     76 % 0.0 in 0.0 W/m2 CLR
04:23 15.7 °F 11.7 °F 1017.8 in Calm     77 % 0.0 in 0.0 W/m2 CLR
04:29 15.7 °F 11.7 °F 1018.2 in Calm     77 % 0.0 in 0.0 W/m2 CLR
04:34 15.5 °F 11.5 °F 1018.2 in Calm     77 % 0.0 in 0.0 W/m2 CLR
04:39 15.4 °F 11.6 °F 1018.2 in Calm     78 % 0.0 in 0.0 W/m2 CLR
04:44 15.3 °F 11.5 °F 1018.2 in Calm     78 % 0.0 in 0.0 W/m2 CLR
04:49 15.2 °F 11.3 °F 1018.2 in Calm     78 % 0.0 in 0.0 W/m2 CLR
04:54 15.0 °F 11.4 °F 1018.2 in Calm     79 % 0.0 in 0.0 W/m2 CLR
04:59 14.8 °F 11.4 °F 1018.2 in Calm     80 % 0.0 in 0.0 W/m2 CLR
05:04 14.8 °F 11.3 °F 1018.2 in Calm     80 % 0.0 in 0.0 W/m2 CLR
05:09 14.7 °F 11.3 °F 1018.5 in Calm     80 % 0.0 in 0.0 W/m2 CLR
05:14 14.6 °F 11.4 °F 1018.5 in Calm     81 % 0.0 in 0.0 W/m2 CLR
05:19 14.6 °F 11.2 °F 1018.5 in Calm     80 % 0.0 in 0.0 W/m2 CLR
05:24 14.4 °F 11.0 °F 1018.5 in Calm     80 % 0.0 in 0.0 W/m2 CLR
05:29 14.3 °F 11.1 °F 1018.5 in Calm     81 % 0.0 in 0.0 W/m2 CLR
05:34 14.3 °F 11.3 °F 1018.5 in Calm     82 % 0.0 in 0.0 W/m2 CLR
05:39 14.2 °F 11.0 °F 1018.5 in Calm     81 % 0.0 in 0.0 W/m2 CLR
05:44 14.1 °F 10.8 °F 1018.5 in Calm     81 % 0.0 in 0.0 W/m2 CLR
05:49 13.9 °F 10.9 °F 1018.5 in Calm     82 % 0.0 in 0.0 W/m2 CLR
05:54 13.8 °F 10.8 °F 1018.5 in Calm     82 % 0.0 in 0.0 W/m2 CLR
05:59 13.7 °F 10.9 °F 1018.8 in Calm     83 % 0.0 in 0.0 W/m2 CLR
06:04 13.6 °F 10.8 °F 1018.8 in Calm     83 % 0.0 in 0.0 W/m2 CLR
06:09 13.6 °F 10.7 °F 1018.8 in Calm     83 % 0.0 in 0.0 W/m2 CLR
06:14 13.4 °F 10.6 °F 1018.8 in Calm     83 % 0.0 in 0.0 W/m2 CLR
06:19 13.3 °F 10.5 °F 1018.8 in Calm     83 % 0.0 in 0.0 W/m2 CLR
06:24 13.1 °F 10.4 °F 1018.8 in Calm     84 % 0.0 in 0.0 W/m2 OVC
06:29 12.9 °F 10.3 °F 1018.8 in Calm     84 % 0.0 in 0.0 W/m2 OVC
06:34 12.9 °F 10.4 °F 1018.8 in Calm     85 % 0.0 in 0.0 W/m2 OVC
06:39 12.8 °F 10.4 °F 1019.2 in Calm     85 % 0.0 in 5.0 W/m2 OVC
06:44 12.8 °F 10.6 °F 1019.2 in Calm     86 % 0.0 in 9.0 W/m2 BKN
06:49 12.8 °F 10.6 °F 1019.2 in Calm     86 % 0.0 in 12.0 W/m2 BKN
06:54 12.9 °F 10.7 °F 1019.2 in Calm     86 % 0.0 in 16.0 W/m2 BKN
06:59 13.0 °F 10.7 °F 1019.2 in Calm     86 % 0.0 in 19.0 W/m2 BKN
07:04 12.9 °F 10.7 °F 1019.2 in Calm     86 % 0.0 in 23.0 W/m2 BKN
07:09 13.0 °F 10.7 °F 1019.5 in Calm     86 % 0.0 in 28.0 W/m2 BKN
07:14 13.1 °F 10.7 °F 1019.5 in Calm     85 % 0.0 in 35.0 W/m2 BKN
07:19 13.2 °F 10.7 °F 1019.5 in Calm     85 % 0.0 in 49.0 W/m2 SCT
07:24 13.2 °F 10.8 °F 1019.5 in Calm     85 % 0.0 in 58.0 W/m2 SCT
07:29 13.4 °F 10.9 °F 1019.5 in Calm     85 % 0.0 in 67.0 W/m2 FEW
07:34 13.6 °F 11.1 °F 1019.5 in Calm     85 % 0.0 in 77.0 W/m2 FEW
07:39 13.9 °F 11.4 °F 1019.5 in Calm     85 % 0.0 in 88.0 W/m2 FEW
07:44 14.2 °F 11.6 °F 1019.5 in Calm     84 % 0.0 in 102.0 W/m2 CLR
07:49 14.6 °F 11.7 °F 1019.5 in Calm     83 % 0.0 in 116.0 W/m2 CLR
07:54 14.9 °F 11.8 °F 1019.5 in Calm     82 % 0.0 in 132.0 W/m2 CLR
07:59 15.3 °F 12.1 °F 1019.5 in Calm     81 % 0.0 in 149.0 W/m2 CLR
08:04 15.7 °F 12.2 °F 1019.9 in Calm     80 % 0.0 in 165.0 W/m2 CLR
08:09 16.1 °F 12.3 °F 1019.9 in Calm     78 % 0.0 in 183.0 W/m2 CLR
08:14 16.6 °F 12.5 °F 1019.9 in Calm     77 % 0.0 in 197.0 W/m2 CLR
08:19 17.0 °F 12.6 °F 1019.9 in Calm     75 % 0.0 in 216.0 W/m2 CLR
08:24 17.3 °F 12.7 °F 1019.9 in Calm     74 % 0.0 in 232.0 W/m2 CLR
08:29 17.7 °F 12.8 °F 1019.9 in Calm     73 % 0.0 in 246.0 W/m2 CLR
08:34 18.1 °F 12.9 °F 1019.9 in Calm     72 % 0.0 in 260.0 W/m2 CLR
08:39 18.3 °F 13.0 °F 1019.9 in Calm     71 % 0.0 in 278.0 W/m2 CLR
08:44 18.5 °F 12.9 °F 1019.9 in WNW 5.6 mph 5.6 mph 70 % 0.0 in 294.0 W/m2 CLR
08:49 18.7 °F 12.9 °F 1020.2 in NNW 7.4 mph 7.4 mph 69 % 0.0 in 309.0 W/m2 CLR
08:54 18.8 °F 12.9 °F 1020.2 in WNW 12.9 mph 12.9 mph 69 % 0.0 in 323.0 W/m2 CLR
08:59 18.8 °F 12.8 °F 1020.2 in NW 9.7 mph 9.7 mph 68 % 0.0 in 339.0 W/m2 CLR
09:04 18.9 °F 12.9 °F 1020.2 in NNW 5.6 mph 5.6 mph 68 % 0.0 in 355.0 W/m2 CLR
09:09 19.1 °F 12.8 °F 1020.2 in WNW 9.3 mph 9.3 mph 67 % 0.0 in 373.0 W/m2 CLR
09:14 19.1 °F 12.8 °F 1020.2 in NNW 11.1 mph 11.1 mph 67 % 0.0 in 387.0 W/m2 CLR
09:19 19.3 °F 13.1 °F 1020.2 in NW 11.3 mph 11.3 mph 67 % 0.0 in 401.0 W/m2 CLR
09:24 19.4 °F 12.9 °F 1020.5 in WNW 9.3 mph 9.3 mph 66 % 0.0 in 418.0 W/m2 CLR
09:29 19.6 °F 13.1 °F 1020.2 in NW 9.3 mph 9.3 mph 66 % 0.0 in 434.0 W/m2 CLR
09:34 19.7 °F 12.9 °F 1020.5 in WNW 1.9 mph   65 % 0.0 in 448.0 W/m2 CLR
09:39 19.8 °F 12.8 °F 1020.2 in SW 6.4 mph 6.4 mph 64 % 0.0 in 462.0 W/m2 CLR
09:44 19.9 °F 12.9 °F 1020.2 in West 6.4 mph 6.4 mph 64 % 0.0 in 476.0 W/m2 CLR
09:49 20.0 °F 13.0 °F 1020.5 in SW 14.8 mph 14.8 mph 64 % 0.0 in 494.0 W/m2 CLR
09:54 20.2 °F 12.7 °F 1020.5 in WSW 11.1 mph 11.1 mph 62 % 0.0 in 510.0 W/m2 CLR
09:59 20.4 °F 13.1 °F 1020.5 in West 5.6 mph 5.6 mph 63 % 0.0 in 522.0 W/m2 CLR
10:04 20.4 °F 12.7 °F 1020.5 in West 9.3 mph 9.3 mph 61 % 0.0 in 536.0 W/m2 CLR
10:09 20.4 °F 12.9 °F 1020.2 in WSW 5.6 mph 5.6 mph 62 % 0.0 in 552.0 W/m2 CLR
10:10 20.4 °F 12.9 °F 1020.2 in WSW 5.6 mph 5.6 mph 62 % 0.0 in 552.0 W/m2 CLR
10:15 20.6 °F 12.8 °F 1020.2 in Calm     61 % 0.0 in 566.0 W/m2 CLR
10:20 21.1 °F 13.2 °F 1020.2 in Calm     61 % 0.0 in 582.0 W/m2 CLR
10:25 21.5 °F 13.2 °F 1020.2 in NW 13.0 mph 13.0 mph 59 % 0.0 in 598.0 W/m2 CLR
10:30 21.3 °F 13.0 °F 1020.2 in NW 7.4 mph 7.4 mph 59 % 0.0 in 613.0 W/m2 CLR
10:35 21.4 °F 13.1 °F 1020.2 in Calm     59 % 0.0 in 626.0 W/m2 CLR
10:40 21.5 °F 12.9 °F 1020.2 in WSW 6.4 mph 6.4 mph 58 % 0.0 in 640.0 W/m2 CLR
10:45 21.4 °F 12.6 °F 1020.2 in WSW 5.6 mph 5.6 mph 57 % 0.0 in 656.0 W/m2 CLR
10:50 21.6 °F 12.7 °F 1020.2 in Calm     57 % 0.0 in 670.0 W/m2 CLR
10:55 21.9 °F 12.4 °F 1020.2 in WSW 7.4 mph 7.4 mph 55 % 0.0 in 680.0 W/m2 CLR
11:00 22.1 °F 12.7 °F 1020.2 in Calm     55 % 0.0 in 693.0 W/m2 CLR
11:05 22.3 °F 12.6 °F 1020.2 in WSW 5.6 mph 5.6 mph 54 % 0.0 in 708.0 W/m2 CLR
11:10 22.4 °F 12.7 °F 1020.2 in Calm     54 % 0.0 in 717.0 W/m2 CLR
11:15 22.6 °F 12.6 °F 1020.2 in SW 11.1 mph 11.1 mph 53 % 0.0 in 728.0 W/m2 CLR
11:20 22.7 °F 12.3 °F 1020.2 in SSW 8.0 mph 8.0 mph 52 % 0.0 in 742.0 W/m2 CLR
11:25 22.9 °F 12.6 °F 1019.9 in Calm     52 % 0.0 in 749.0 W/m2 CLR
11:30 23.1 °F 12.7 °F 1019.9 in Calm     52 % 0.0 in 759.0 W/m2 CLR
11:35 23.3 °F 12.6 °F 1019.9 in NNW 7.4 mph   51 % 0.0 in 770.0 W/m2 CLR
11:40 23.4 °F 12.4 °F 1019.9 in SW 1.9 mph   50 % 0.0 in 780.0 W/m2 CLR
11:45 23.7 °F 12.4 °F 1019.9 in WNW 7.4 mph 7.4 mph 49 % 0.0 in 791.0 W/m2 CLR
11:50 23.8 °F 12.1 °F 1019.9 in NW 5.6 mph 5.6 mph 48 % 0.0 in 798.0 W/m2 CLR
11:55 23.8 °F 12.1 °F 1019.9 in NE 5.6 mph 5.6 mph 48 % 0.0 in 805.0 W/m2 CLR
12:00 24.2 °F 12.4 °F 1019.9 in ENE 1.9 mph 1.9 mph 48 % 0.0 in 819.0 W/m2 CLR
12:05 24.3 °F 12.3 °F 1019.9 in Calm     47 % 0.0 in 826.0 W/m2 CLR
12:10 24.7 °F 12.6 °F 1019.9 in West 3.7 mph 3.7 mph 47 % 0.0 in 835.0 W/m2 CLR
12:15 25.2 °F 12.7 °F 1019.9 in NNW 7.4 mph 7.4 mph 46 % 0.0 in 842.0 W/m2 CLR
12:20 25.4 °F 12.6 °F 1019.9 in Calm     45 % 0.0 in 847.0 W/m2 CLR
12:25 25.7 °F 12.5 °F 1019.9 in East 5.6 mph 5.6 mph 44 % 0.0 in 856.0 W/m2 CLR
12:30 25.6 °F 12.8 °F 1019.9 in East 4.8 mph 4.8 mph 45 % 0.0 in 863.0 W/m2 CLR
12:35 25.6 °F 12.4 °F 1019.9 in ESE 5.6 mph 5.6 mph 44 % 0.0 in 868.0 W/m2 CLR
12:40 25.4 °F 12.3 °F 1019.5 in SE 8.0 mph 8.0 mph 44 % 0.0 in 875.0 W/m2 CLR
12:45 25.3 °F 11.8 °F 1019.5 in ESE 5.6 mph 5.6 mph 43 % 0.0 in 882.0 W/m2 CLR
12:50 25.4 °F 12.2 °F 1019.5 in Calm     44 % 0.0 in 888.0 W/m2 CLR
12:52 25.5 °F 12.3 °F 1019.5 in Calm     44 % 0.0 in 886.0 W/m2 CLR
12:56 25.6 °F 12.4 °F 1019.5 in North 4.8 mph 4.8 mph 44 % 0.0 in 891.0 W/m2 CLR
13:01 25.6 °F 12.1 °F 1019.5 in Calm     43 % 0.0 in 896.0 W/m2 CLR
13:06 25.8 °F 12.3 °F 1019.5 in East 3.7 mph 4.3 mph 43 % 0.0 in 900.0 W/m2 CLR
13:11 26.1 °F 12.2 °F 1019.2 in ESE 1.6 mph 1.8 mph 42 % 0.0 in 905.0 W/m2 CLR
13:16 26.3 °F 12.3 °F 1019.2 in Calm     42 % 0.0 in 907.0 W/m2 CLR
13:21 26.7 °F 12.7 °F 1019.2 in NE 13.0 mph 13.0 mph 42 % 0.0 in 911.0 W/m2 CLR
13:26 26.8 °F 12.1 °F 1019.2 in North 7.4 mph 7.4 mph 40 % 0.0 in 912.0 W/m2 CLR
13:31 26.8 °F 12.8 °F 1019.2 in NW 9.3 mph 9.3 mph 42 % 0.0 in 914.0 W/m2 CLR
13:36 26.9 °F 12.2 °F 1019.2 in SSE 1.6 mph   40 % 0.0 in 914.0 W/m2 CLR
13:41 26.9 °F 12.2 °F 1019.2 in ESE 6.4 mph 6.4 mph 40 % 0.0 in 919.0 W/m2 CLR
13:46 27.4 °F 12.2 °F 1018.8 in NE 11.1 mph 11.1 mph 39 % 0.0 in 921.0 W/m2 CLR
13:51 27.3 °F 12.2 °F 1018.8 in Calm     39 % 0.0 in 921.0 W/m2 CLR
13:56 27.4 °F 11.8 °F 1018.8 in ENE 9.7 mph 9.7 mph 38 % 0.0 in 921.0 W/m2 CLR
14:01 27.5 °F 11.9 °F 1018.8 in ENE 12.9 mph 12.9 mph 38 % 0.0 in 923.0 W/m2 CLR
14:06 27.7 °F 12.1 °F 1018.8 in NW 5.6 mph 5.6 mph 38 % 0.0 in 921.0 W/m2 CLR
14:11 28.1 °F 12.8 °F 1018.8 in WNW 1.9 mph   39 % 0.0 in 921.0 W/m2 CLR
14:16 28.3 °F 12.7 °F 1018.5 in Calm     38 % 0.0 in 918.0 W/m2 CLR
14:21 28.6 °F 12.4 °F 1018.5 in NE 1.6 mph 1.6 mph 37 % 0.0 in 919.0 W/m2 CLR
14:26 28.7 °F 12.6 °F 1018.5 in ESE 5.6 mph   37 % 0.0 in 907.0 W/m2 CLR
14:31 28.6 °F 12.9 °F 1018.5 in NNE 18.5 mph 18.5 mph 38 % 0.0 in 912.0 W/m2 CLR
14:36 28.6 °F 12.9 °F 1018.5 in NNE 16.7 mph 16.7 mph 38 % 0.0 in 914.0 W/m2 CLR
14:41 28.6 °F 12.9 °F 1018.5 in NNE 9.3 mph 9.3 mph 38 % 0.0 in 912.0 W/m2 CLR
14:46 28.7 °F 12.6 °F 1018.5 in SW 3.7 mph 3.7 mph 37 % 0.0 in 911.0 W/m2 CLR
14:51 28.9 °F 12.7 °F 1018.5 in NE 14.8 mph 14.8 mph 37 % 0.0 in 933.0 W/m2 CLR
14:56 29.1 °F 12.9 °F 1018.2 in NE 16.7 mph 16.7 mph 37 % 0.0 in 942.0 W/m2 CLR
15:01 29.3 °F 13.1 °F 1018.5 in NE 16.7 mph 16.7 mph 37 % 0.0 in 912.0 W/m2 CLR
15:06 29.3 °F 12.7 °F 1018.2 in ESE 5.6 mph 5.6 mph 36 % 0.0 in 916.0 W/m2 CLR
15:11 29.3 °F 12.2 °F 1018.2 in NNE 9.3 mph 9.3 mph 35 % 0.0 in 939.0 W/m2 CLR
15:16 29.3 °F 12.7 °F 1017.8 in South 7.4 mph 7.4 mph 36 % 0.0 in 951.0 W/m2 CLR
15:21 29.4 °F 12.4 °F 1017.8 in North 7.4 mph 7.4 mph 35 % 0.0 in 967.0 W/m2 CLR
15:26 29.9 °F 12.8 °F 1017.8 in North 14.8 mph 14.8 mph 35 % 0.0 in 956.0 W/m2 CLR
15:31 29.7 °F 12.6 °F 1017.8 in North 14.8 mph 14.8 mph 35 % 0.0 in 223.0 W/m2 CLR
15:36 29.3 °F 12.2 °F 1017.8 in Calm     35 % 0.0 in 190.0 W/m2 CLR
15:41 28.7 °F 12.2 °F 1017.8 in ESE 9.3 mph 9.3 mph 36 % 0.0 in 991.0 W/m2 CLR
15:46 29.0 °F 12.8 °F 1017.8 in ESE 11.3 mph 11.3 mph 37 % 0.0 in 963.0 W/m2 CLR
15:51 29.2 °F 12.6 °F 1017.8 in SE 18.5 mph 18.5 mph 36 % 0.0 in 937.0 W/m2 CLR
15:56 29.2 °F 12.6 °F 1017.8 in ESE 13.0 mph 13.0 mph 36 % 0.0 in 828.0 W/m2 CLR
16:01 28.7 °F 12.6 °F 1017.8 in ESE 22.2 mph 22.2 mph 37 % 0.0 in 214.0 W/m2 CLR
16:06 28.4 °F 12.3 °F 1017.8 in East 16.1 mph 16.1 mph 37 % 0.0 in 350.0 W/m2 CLR
16:11 28.6 °F 12.4 °F 1017.5 in East 13.0 mph 13.0 mph 37 % 0.0 in 886.0 W/m2 CLR
16:16 28.9 °F 12.7 °F 1017.8 in ESE 22.2 mph 22.2 mph 37 % 0.0 in 851.0 W/m2 CLR
16:21 29.0 °F 12.4 °F 1017.8 in SE 13.0 mph 13.0 mph 36 % 0.0 in 791.0 W/m2 CLR
16:26 29.2 °F 12.6 °F 1017.5 in ENE 11.3 mph 11.3 mph 36 % 0.0 in 786.0 W/m2 CLR
16:31 29.1 °F 12.4 °F 1017.5 in SE 22.5 mph 22.5 mph 36 % 0.0 in 766.0 W/m2 CLR
16:32 29.0 °F 12.4 °F 1017.5 in ESE 24.1 mph 24.1 mph 36 % 0.0 in 770.0 W/m2 CLR
16:37 29.2 °F 12.6 °F 1017.5 in ESE 18.5 mph 18.5 mph 36 % 0.0 in 758.0 W/m2 CLR
16:42 29.1 °F 12.5 °F 1017.5 in ESE 20.4 mph 20.4 mph 36 % 0.0 in 749.0 W/m2 CLR
16:47 29.2 °F 12.6 °F 1017.5 in East 11.1 mph 11.1 mph 36 % 0.0 in 737.0 W/m2 CLR
16:52 29.2 °F 12.6 °F 1017.5 in SE 18.5 mph 18.5 mph 36 % 0.0 in 733.0 W/m2 CLR
16:57 28.9 °F 12.4 °F 1017.5 in ESE 24.1 mph 24.1 mph 36 % 0.0 in 742.0 W/m2 CLR
17:02 28.8 °F 12.6 °F 1017.8 in SE 16.7 mph 16.7 mph 37 % 0.0 in 733.0 W/m2 CLR
17:07 28.6 °F 12.5 °F 1017.5 in ESE 5.6 mph 5.6 mph 37 % 0.0 in 712.0 W/m2 CLR
17:12 28.8 °F 12.7 °F 1017.5 in ENE 13.0 mph 13.0 mph 37 % 0.0 in 703.0 W/m2 CLR
17:17 28.9 °F 12.8 °F 1017.5 in SE 18.5 mph 18.5 mph 37 % 0.0 in 682.0 W/m2 CLR
17:22 28.9 °F 12.7 °F 1017.5 in South 14.8 mph 14.8 mph 37 % 0.0 in 668.0 W/m2 CLR
17:27 28.7 °F 12.6 °F 1017.5 in SSE 20.4 mph 20.4 mph 37 % 0.0 in 636.0 W/m2 CLR
17:32 28.7 °F 12.6 °F 1017.5 in ESE 12.9 mph 12.9 mph 37 % 0.0 in 619.0 W/m2 CLR
17:37 28.7 °F 12.6 °F 1017.5 in ENE 11.1 mph 11.1 mph 37 % 0.0 in 599.0 W/m2 CLR
17:42 28.8 °F 12.6 °F 1017.5 in SE 20.9 mph 20.9 mph 37 % 0.0 in 608.0 W/m2 CLR
17:47 28.9 °F 12.8 °F 1017.5 in SE 18.5 mph 18.5 mph 37 % 0.0 in 638.0 W/m2 CLR
17:52 28.9 °F 12.7 °F 1017.5 in SE 18.5 mph 18.5 mph 37 % 0.0 in 615.0 W/m2 CLR
17:57 28.6 °F 12.5 °F 1017.5 in SSE 18.5 mph 18.5 mph 37 % 0.0 in 497.0 W/m2 CLR
18:02 28.7 °F 12.6 °F 1017.5 in SSE 16.7 mph 16.7 mph 37 % 0.0 in 533.0 W/m2 CLR
18:07 28.6 °F 12.4 °F 1017.5 in SE 24.1 mph 24.1 mph 37 % 0.0 in 512.0 W/m2 CLR
18:12 28.2 °F 12.1 °F 1017.5 in ESE 18.5 mph 18.5 mph 37 % 0.0 in 496.0 W/m2 CLR
18:17 28.2 °F 12.6 °F 1017.5 in SE 20.4 mph 20.4 mph 38 % 0.0 in 473.0 W/m2 CLR
18:22 28.1 °F 12.4 °F 1017.5 in ESE 11.1 mph 11.1 mph 38 % 0.0 in 455.0 W/m2 CLR
18:23 28.1 °F 12.4 °F 1017.5 in ESE 16.7 mph 16.7 mph 38 % 0.0 in 452.0 W/m2 CLR
18:28 28.1 °F 12.4 °F 1017.5 in ESE 22.2 mph 22.2 mph 38 % 0.0 in 432.0 W/m2 CLR
18:33 27.9 °F 12.3 °F 1017.5 in ESE 16.7 mph 16.7 mph 38 % 0.0 in 417.0 W/m2 CLR
18:38 27.9 °F 12.3 °F 1017.5 in ESE 27.8 mph 27.8 mph 38 % 0.0 in 403.0 W/m2 CLR
18:43 27.9 °F 12.3 °F 1017.5 in SE 13.0 mph 13.0 mph 38 % 0.0 in 383.0 W/m2 CLR
18:48 28.1 °F 12.4 °F 1017.5 in ESE 20.4 mph 20.4 mph 38 % 0.0 in 371.0 W/m2 CLR
18:53 27.9 °F 12.3 °F 1017.5 in SSE 24.1 mph 24.1 mph 38 % 0.0 in 353.0 W/m2 CLR
18:58 27.8 °F 12.2 °F 1017.5 in SE 14.8 mph 14.8 mph 38 % 0.0 in 336.0 W/m2 CLR
19:03 27.8 °F 12.2 °F 1017.5 in South 14.5 mph 14.5 mph 38 % 0.0 in 318.0 W/m2 CLR
19:08 27.7 °F 12.1 °F 1017.5 in South 13.0 mph 13.0 mph 38 % 0.0 in 304.0 W/m2 CLR
19:13 27.4 °F 11.9 °F 1017.5 in SE 18.5 mph 18.5 mph 38 % 0.0 in 292.0 W/m2 CLR
19:18 27.4 °F 11.8 °F 1017.2 in SSE 18.5 mph 18.5 mph 38 % 0.0 in 272.0 W/m2 CLR
19:23 27.3 °F 11.8 °F 1017.5 in SSE 18.5 mph 18.5 mph 38 % 0.0 in 262.0 W/m2 CLR
19:28 27.3 °F 12.1 °F 1017.5 in SE 18.5 mph 18.5 mph 39 % 0.0 in 246.0 W/m2 CLR
19:33 27.3 °F 12.1 °F 1017.5 in SE 14.8 mph 14.8 mph 39 % 0.0 in 232.0 W/m2 CLR
19:38 27.2 °F 12.1 °F 1017.5 in SE 11.1 mph 11.1 mph 39 % 0.0 in 211.0 W/m2 CLR
19:43 27.2 °F 12.0 °F 1017.5 in SE 20.4 mph 20.4 mph 39 % 0.0 in 193.0 W/m2 CLR
19:48 27.0 °F 11.9 °F 1017.5 in SE 18.5 mph 18.5 mph 39 % 0.0 in 178.0 W/m2 CLR
19:49 27.0 °F 11.9 °F 1017.5 in SE 18.5 mph 18.5 mph 39 % 0.0 in 178.0 W/m2 CLR
19:54 27.1 °F 11.9 °F 1017.5 in SE 13.0 mph 13.0 mph 39 % 0.0 in 162.0 W/m2 CLR
19:59 27.1 °F 11.9 °F 1017.5 in SE 16.7 mph 16.7 mph 39 % 0.0 in 146.0 W/m2 CLR
20:04 26.9 °F 12.2 °F 1017.5 in SE 16.7 mph 16.7 mph 40 % 0.0 in 130.0 W/m2 CLR
20:09 26.7 °F 12.0 °F 1017.5 in SE 14.8 mph 14.8 mph 40 % 0.0 in 114.0 W/m2 CLR
20:14 26.6 °F 11.9 °F 1017.5 in SE 18.5 mph 18.5 mph 40 % 0.0 in 100.0 W/m2 CLR
20:19 26.6 °F 11.8 °F 1017.5 in SE 11.3 mph 11.3 mph 40 % 0.0 in 83.0 W/m2 FEW
20:24 26.5 °F 12.2 °F 1017.5 in SSE 14.8 mph 14.8 mph 41 % 0.0 in 70.0 W/m2 FEW
20:29 26.4 °F 12.1 °F 1017.8 in SE 14.8 mph 14.8 mph 41 % 0.0 in 58.0 W/m2 SCT
20:34 26.3 °F 12.0 °F 1017.8 in SE 14.8 mph 14.8 mph 41 % 0.0 in 49.0 W/m2 SCT
20:39 26.1 °F 12.2 °F 1017.8 in SE 13.0 mph 13.0 mph 42 % 0.0 in 37.0 W/m2 BKN
20:44 25.9 °F 12.1 °F 1017.8 in SE 13.0 mph 13.0 mph 42 % 0.0 in 30.0 W/m2 BKN
20:49 25.8 °F 11.9 °F 1018.2 in ESE 7.4 mph 7.4 mph 42 % 0.0 in 23.0 W/m2 BKN
20:54 25.6 °F 12.1 °F 1018.2 in SE 13.0 mph 13.0 mph 43 % 0.0 in 18.0 W/m2 BKN
20:59 25.4 °F 11.9 °F 1018.2 in SE 11.1 mph 11.1 mph 43 % 0.0 in 16.0 W/m2 BKN
21:04 25.3 °F 11.8 °F 1018.2 in SE 13.0 mph 13.0 mph 43 % 0.0 in 12.0 W/m2 BKN
21:09 25.2 °F 12.1 °F 1018.2 in SE 14.8 mph 14.8 mph 44 % 0.0 in 9.0 W/m2 BKN
21:14 25.1 °F 11.9 °F 1018.2 in SE 9.3 mph 9.3 mph 44 % 0.0 in 7.0 W/m2 BKN
21:19 24.9 °F 11.8 °F 1018.2 in SE 11.1 mph 11.1 mph 44 % 0.0 in 5.0 W/m2 OVC
21:24 24.7 °F 12.0 °F 1018.2 in SE 7.4 mph 7.4 mph 45 % 0.0 in 0.0 W/m2 OVC
21:29 24.6 °F 11.8 °F 1018.2 in SSE 7.4 mph 7.4 mph 45 % 0.0 in 0.0 W/m2 CLR
21:34 24.4 °F 11.7 °F 1018.5 in SE 13.0 mph 13.0 mph 45 % 0.0 in 0.0 W/m2 CLR
21:39 24.2 °F 11.6 °F 1018.5 in SE 14.8 mph 14.8 mph 45 % 0.0 in 0.0 W/m2 CLR
21:44 24.1 °F 11.7 °F 1018.5 in SSE 14.8 mph 14.8 mph 46 % 0.0 in 0.0 W/m2 CLR
21:49 23.9 °F 11.6 °F 1018.5 in SE 14.8 mph 14.8 mph 46 % 0.0 in 0.0 W/m2 CLR
21:54 23.8 °F 11.4 °F 1018.5 in SSE 14.8 mph 14.8 mph 46 % 0.0 in 0.0 W/m2 CLR
21:59 23.6 °F 11.6 °F 1018.8 in SSE 11.3 mph 11.3 mph 47 % 0.0 in 0.0 W/m2 CLR
22:04 23.4 °F 11.4 °F 1018.8 in SE 5.6 mph 5.6 mph 47 % 0.0 in 0.0 W/m2 CLR
22:09 23.2 °F 11.3 °F 1018.8 in SE 14.8 mph 14.8 mph 47 % 0.0 in 0.0 W/m2 CLR
22:14 23.1 °F 11.5 °F 1018.8 in SE 4.8 mph 4.8 mph 48 % 0.0 in 0.0 W/m2 CLR
22:19 23.0 °F 11.4 °F 1018.8 in SE 7.4 mph 7.4 mph 48 % 0.0 in 0.0 W/m2 CLR
22:24 22.9 °F 11.3 °F 1019.2 in SSE 12.9 mph 12.9 mph 48 % 0.0 in 0.0 W/m2 CLR
22:29 22.9 °F 11.3 °F 1019.2 in SSE 11.1 mph 11.1 mph 48 % 0.0 in 0.0 W/m2 CLR
22:34 22.8 °F 11.5 °F 1019.2 in SSE 5.6 mph 5.6 mph 49 % 0.0 in 0.0 W/m2 CLR
22:39 22.7 °F 11.4 °F 1019.2 in ESE 7.4 mph 7.4 mph 49 % 0.0 in 0.0 W/m2 CLR
22:44 22.6 °F 11.3 °F 1019.2 in SE 7.4 mph 7.4 mph 49 % 0.0 in 0.0 W/m2 CLR
22:49 22.6 °F 11.3 °F 1019.2 in Calm     49 % 0.0 in 0.0 W/m2 CLR
22:54 22.5 °F 11.2 °F 1019.2 in Calm     49 % 0.0 in 0.0 W/m2 CLR
22:59 22.3 °F 11.1 °F 1019.2 in Calm     49 % 0.0 in 0.0 W/m2 CLR
23:04 22.2 °F 11.3 °F 1019.5 in Calm     50 % 0.0 in 0.0 W/m2 CLR
23:09 22.0 °F 11.4 °F 1019.5 in Calm     51 % 0.0 in 0.0 W/m2 CLR
23:14 21.8 °F 11.2 °F 1019.5 in Calm     51 % 0.0 in 0.0 W/m2 CLR
23:19 21.6 °F 11.3 °F 1019.5 in Calm     52 % 0.0 in 0.0 W/m2 CLR
23:24 21.5 °F 11.2 °F 1019.5 in Calm     52 % 0.0 in 0.0 W/m2 CLR
23:29 21.3 °F 11.1 °F 1019.5 in Calm     52 % 0.0 in 0.0 W/m2 CLR
23:34 21.3 °F 11.3 °F 1019.5 in WSW 1.6 mph 1.6 mph 53 % 0.0 in 0.0 W/m2 CLR
23:39 21.3 °F 11.3 °F 1019.5 in SW 5.6 mph 5.6 mph 53 % 0.0 in 0.0 W/m2 CLR
23:44 21.3 °F 11.3 °F 1019.5 in Calm     53 % 0.0 in 0.0 W/m2 CLR
23:49 21.2 °F 11.6 °F 1019.5 in Calm     54 % 0.0 in 0.0 W/m2 CLR
23:54 20.9 °F 11.2 °F 1019.5 in Calm     54 % 0.0 in 0.0 W/m2 CLR
23:59 20.6 °F 11.2 °F 1019.5 in Calm     55 % 0.0 in 0.0 W/m2 CLR
Lo Temps de Massalio
Compliments of Weather Underground - 1.25 mb